This demonstration page uses our WeatherBlox Daily Observations layout. Learn more.

Left ArrowRight Arrow

Hourly Observations for February 9, 2018

Temp ( °F °C ) Dew Point ( °F °C ) Humidity (%) Winds ( mph kmh ) Pressure ( in mb ) Visibility ( mi km ) Precip ( " mm )
12:54 am 00:54 Partly Cloudy with Mist and Fog 21 -6.1 17 -8.3 85 85 N 16 26 30.16 1021 5 8 0.00 0.00
1:28 am 01:28 Cloudy with Mist and Fog 20 -6.7 16 -8.9 85 85 NNE 21 33 30.21 1023 5 8 0.00 0.00
1:54 am 01:54 Cloudy with Mist and Fog 20 -6.7 16 -8.9 85 85 N 18 30 30.16 1022 4 6 0.00 0.00
2:05 am 02:05 Cloudy with Haze 20 -6.7 15 -9.4 81 81 N 21 33 30.21 1023 5 8 0.00 0.00
2:18 am 02:18 Cloudy with Haze 19 -7.2 14 -10 81 81 NNE 22 35 30.27 1025 5 8 0.00 0.00
2:54 am 02:54 Cloudy with Mist and Fog 18 -7.8 14 -10 84 84 N 18 30 30.22 1023 5 8 0.00 0.00
3:38 am 03:38 Cloudy 18 -7.8 13 -10.6 81 81 NNE 21 33 30.30 1026 7 11 0.00 0.00
3:54 am 03:54 Mostly Cloudy 18 -7.8 13 -10.6 81 81 NNE 22 35 30.22 1024 7 11 0.00 0.00
4:54 am 04:54 Cloudy 17 -8.3 12 -11.1 80 80 NNE 18 30 30.24 1024 8 13 0.00 0.00
5:27 am 05:27 Cloudy 16 -8.9 12 -11.1 84 84 NNE 22 35 30.33 1027 7 11 0.00 0.00
5:38 am 05:38 Cloudy 16 -8.9 11 -11.7 80 80 NNE 21 33 30.33 1027 7 11 0.00 0.00
5:54 am 05:54 Windy with Snow Likely 16 -8.9 11 -11.7 80 80 NNE 23 37 30.28 1025 6 10 0.00 0.03
6:54 am 06:54 Cloudy 15 -9.4 10 -12.2 80 80 NNE 21 33 30.34 1027 9 14 0.00 0.03
7:09 am 07:09 Windy with Snow Likely 15 -9.4 10 -12.2 80 80 NNE 20 31 30.39 1029 7 11 0.00 0.03
7:23 am 07:23 Windy with Snow Likely 15 -9.4 10 -12.2 80 80 N 23 37 30.39 1029 5 8 0.00 0.03
7:54 am 07:54 Cloudy 14 -10 9 -12.8 80 80 N 18 30 30.37 1028 7 11 0.00 0.03
8:29 am 08:29 Windy with Snow Likely 14 -10 8 -13.3 77 77 NNE 23 37 30.39 1029 4 6 0.00 0.03
8:54 am 08:54 Cloudy 16 -8.9 9 -12.8 74 74 NNE 21 33 30.37 1029 9 14 0.00 0.03
9:01 am 09:01 Cloudy 15 -9.4 8 -13.3 74 74 NNE 18 30 30.42 1030 10 16 0.00 0.00
9:28 am 09:28 Windy with Snow Likely 15 -9.4 9 -12.8 77 77 NNE 21 33 30.42 1030 7 11 0.00 0.03
9:54 am 09:54 Cloudy 15 -9.4 8 -13.3 74 74 NNE 18 30 30.39 1029 9 14 0.00 0.03
10:02 am 10:02 Cloudy with Light Snow 15 -9.4 8 -13.3 74 74 NNE 18 30 30.42 1030 8 13 0.00 0.03
10:32 am 10:32 Cloudy with Haze 15 -9.4 8 -13.3 74 74 N 20 31 30.42 1030 6 10 0.00 0.03
10:54 am 10:54 Cloudy 15 -9.4 8 -13.3 74 74 N 21 33 30.40 1030 8 13 0.00 0.03
11:54 am 11:54 Cloudy 14 -10 7 -13.9 73 73 NNE 21 33 30.39 1029 7 11 0.00 0.03
12:07 pm 12:07 Cloudy 15 -9.4 7 -13.9 70 70 NNE 20 31 30.42 1030 8 13 0.00 0.00
12:20 pm 12:20 Cloudy 14 -10 7 -13.9 73 73 NNE 18 30 30.42 1030 9 14 0.00 0.00
12:54 pm 12:54 Cloudy with Haze 16 -8.9 8 -13.3 71 71 N 15 24 30.37 1028 6 10 0.00 0.03
1:54 pm 13:54 Mostly Cloudy 17 -8.3 8 -13.3 68 68 NNE 17 28 30.35 1028 10 16 0.00 0.03
2:08 pm 14:08 Cloudy 17 -8.3 8 -13.3 68 68 N 21 33 30.39 1029 10 16 0.00 0.00
2:54 pm 14:54 Cloudy 16 -8.9 7 -13.9 67 67 NNE 18 30 30.32 1027 10 16 0.00 0.00
3:54 pm 15:54 Cloudy 14 -10 6 -14.4 71 71 N 20 31 30.33 1027 10 16 0.00 0.00
4:54 pm 16:54 Cloudy with Light Snow 13 -10.6 5 -15 70 70 NNE 18 30 30.32 1027 5 8 0.00 0.03
5:54 pm 17:54 Cloudy 12 -11.1 3 -16.1 67 67 N 18 30 30.37 1028 10 16 0.00 0.03
6:54 pm 18:54 Windy with Snow Likely 11 -11.7 4 -15.6 73 73 N 21 33 30.41 1030 6 10 0.00 0.03
7:14 pm 19:14 Windy with Snow Likely 10 -12.2 4 -15.6 76 76 N 21 33 30.45 1031 2 3 0.00 0.03
7:22 pm 19:22 Windy with Snow Likely 10 -12.2 5 -15 80 80 N 21 33 30.45 1031 2 3 0.00 0.03
7:50 pm 19:50 Cloudy with Light Snow 10 -12 3 -16 72 72 N 16 26 30.48 1032 3 5 0.00 0.03
7:54 pm 19:54 Cloudy with Light Snow 10 -12.2 4 -15.6 76 76 N 14 22 30.42 1030 4 6 0.00 0.03
8:06 pm 20:06 Cloudy with Light Snow 10 -12.2 5 -15 80 80 N 17 28 30.48 1032 5 8 0.00 0.03
8:54 pm 20:54 Cloudy with Light Snow 9 -12.8 4 -15.6 80 80 N 18 30 30.44 1031 3 4 0.00 0.03
9:04 pm 21:04 Cloudy with Light Snow 9 -12.8 4 -15.6 80 80 NNE 15 24 30.48 1032 2 3 0.00 0.03
9:32 pm 21:32 Cloudy with Light Snow 8 -13.3 4 -15.6 83 83 NNE 13 20 30.48 1032 1 2 0.01 0.25
9:54 pm 21:54 Cloudy with Light Snow 8 -13.3 4 -15.6 83 83 N 16 26 30.45 1031 1 2 0.02 0.51
10:15 pm 22:15 Mostly Cloudy with Light Snow 8 -13.3 4 -15.6 83 83 N 15 24 30.48 1032 1 2 0.00 0.03
10:29 pm 22:29 Mostly Cloudy with Light Snow 8 -13.3 4 -15.6 83 83 N 15 24 30.48 1032 1 2 0.01 0.25
10:42 pm 22:42 Mostly Cloudy with Light Snow 8 -13.3 3 -16.1 80 80 N 16 26 30.48 1032 1 1 0.01 0.25
10:54 pm 22:54 Mostly Cloudy with Light Snow 8 -13.3 3 -16.1 80 80 N 16 26 30.44 1031 1 2 0.02 0.51
11:16 pm 23:16 Cloudy with Light Snow 8 -13.3 3 -16.1 80 80 N 14 22 30.48 1032 2 3 0.01 0.25
11:54 pm 23:54 Cloudy with Light Snow 8 -13.3 3 -16.1 80 80 N 16 26 30.43 1031 2 2 0.02 0.51

Powered by AerisWeather